DW3435 Weather Reports


Display with metric or nautical units.
time (UTC)temp
F
wind
direction
speed
MPH
gust
MPH
rain 1hr
in
rain 24hr
in
rain mn
in
humidity
%
barometer
mb
20180426075051 50 277 0.0 0.0 0.00 0.00 0.00 96 1011.2
20180426072049 51 277 0.0 0.0 0.00 0.00 0.00 96 1011.7
20180426070546 51 277 0.0 0.0 0.00 0.00 0.00 96 1011.7
20180426065044 51 277 0.0 0.0 0.00 0.00 0.00 96 1011.9
20180426063543 51 277 0.0 0.0 0.00 0.00 0.00 96 1012.2
20180426062041 51 277 0.0 0.0 0.00 0.00 0.00 96 1012.2
20180426060540 51 277 0.0 0.0 0.00 0.00 0.00 96 1012.4
20180426055039 51 277 0.0 0.0 0.00 0.00 0.00 96 1012.5
20180426053541 51 277 0.0 0.0 0.00 0.00 0.00 96 1012.7
20180426052036 51 277 0.0 0.0 0.00 0.00 0.00 96 1012.8
20180426050536 51 277 0.0 0.0 0.00 0.00 0.00 95 1012.7
20180426045035 51 277 0.0 0.0 0.00 0.00 0.00 95 1012.7
20180426043534 51 277 0.0 0.0 0.00 0.00 0.00 95 1012.8
20180426042033 51 277 0.0 0.0 0.00 0.00 0.00 95 1012.9
20180426040531 51 277 0.0 0.0 0.00 0.00 0.00 94 1012.9
20180426035030 51 277 0.0 0.0 0.00 0.00 0.00 93 1012.7
20180426033527 51 277 0.0 0.0 0.00 0.00 0.00 93 1012.7
20180426032026 51 277 0.0 0.0 0.00 0.00 0.00 93 1012.8
20180426030525 52 277 0.0 0.0 0.00 0.00 0.00 92 1013.0
20180426025022 52 277 0.0 0.0 0.00 0.00 0.00 92 1013.1
20180426023522 53 277 0.0 0.0 0.00 0.00 0.00 91 1013.0
20180426022018 54 277 0.0 0.0 0.00 0.00 0.00 89 1013.1
20180426020516 55 277 0.0 0.0 0.00 0.00 0.00 88 1013.3
20180426015015 56 277 0.0 0.0 0.00 0.00 0.00 87 1013.3
20180426013513 56 277 0.0 0.0 0.00 0.00 0.00 88 1013.2
20180426012012 57 277 0.0 0.0 0.00 0.00 0.00 88 1013.2
20180426010512 57 277 0.0 0.0 0.00 0.00 0.00 87 1013.2
20180426005013 57 277 0.0 0.0 0.00 0.01 0.00 85 1013.2
20180426003515 57 277 0.0 0.0 0.00 0.01 0.00 83 1013.2
20180426002014 58 277 0.0 0.0 0.00 0.01 0.00 83 1013.2
20180426000513 58 277 0.0 0.0 0.00 0.01 0.00 81 1013.2
20180425235013 59 254 0.0 0.0 0.00 0.01 0.00 83 1013.3
20180425233511 59 254 0.0 0.0 0.00 0.01 0.00 82 1013.2
20180425232009 59 254 0.0 0.0 0.00 0.01 0.00 79 1013.2
20180425230511 59 254 0.0 0.0 0.00 0.01 0.00 82 1013.2
20180425225009 59 254 0.0 0.0 0.00 0.01 0.00 81 1013.3
20180425223510 59 254 0.0 0.0 0.00 0.01 0.00 80 1013.3
20180425222009 59 254 0.0 5.0 0.00 0.01 0.00 79 1013.3
20180425220507 59 67 0.0 5.0 0.00 0.01 0.00 77 1013.3
20180425215006 60 40 2.0 9.0 0.00 0.01 0.00 76 1013.4
20180425213506 60 57 0.0 4.0 0.00 0.01 0.00 74 1012.9
20180425212005 61 73 0.0 6.0 0.00 0.01 0.00 74 1012.7
20180425210505 62 32 1.0 8.0 0.00 0.01 0.00 72 1012.7
20180425205004 62 59 0.0 7.0 0.00 0.03 0.00 73 1012.5
20180425203507 62 229 0.0 5.0 0.00 0.03 0.00 68 1012.5
20180425202005 62 117 1.0 4.0 0.00 0.03 0.00 72 1012.2
20180425200503 61 74 1.0 9.0 0.00 0.03 0.00 73 1012.2
20180425195002 61 85 1.0 6.0 0.00 0.04 0.00 74 1012.7
20180425193502 63 193 1.0 4.0 0.00 0.04 0.00 74 1012.6
20180425192001 63 82 0.0 0.0 0.00 0.04 0.00 71 1012.4
20180425190501 63 213 0.0 0.0 0.00 0.04 0.00 73 1012.3
20180425184959 62 220 1.0 5.0 0.00 0.11 0.00 73 1012.0
20180425183501 62 198 0.0 7.0 0.00 0.11 0.00 74 1012.2
20180425182003 62 210 2.0 7.0 0.00 0.11 0.00 75 1012.5
20180425180459 62 121 1.0 4.0 0.00 0.11 0.00 73 1012.5
20180425174959 62 332 0.0 3.0 0.00 0.11 0.00 73 1012.9
20180425173458 63 161 0.0 0.0 0.00 0.11 0.00 70 1012.9
20180425171957 63 80 0.0 3.0 0.00 0.11 0.00 71 1013.0
20180425170459 62 55 0.0 7.0 0.00 0.11 0.00 74 1012.7
20180425164953 61 355 0.0 4.0 0.00 0.11 0.00 74 1012.8
20180425163449 61 216 0.0 4.0 0.00 0.11 0.00 76 1013.0
20180425161947 60 74 1.0 5.0 0.00 0.11 0.00 78 1013.2
20180425160446 60 252 0.0 6.0 0.00 0.11 0.00 78 1013.3
20180425154946 60 142 0.0 4.0 0.00 0.11 0.00 80 1013.1
20180425153443 58 257 0.0 4.0 0.00 0.11 0.00 84 1013.1
20180425151943 58 259 0.0 6.0 0.00 0.11 0.00 82 1013.3
20180425150438 58 204 3.0 8.0 0.00 0.11 0.00 81 1013.2
20180425144936 58 72 0.0 5.0 0.00 0.11 0.00 82 1013.0
20180425143434 58 78 0.0 4.0 0.00 0.11 0.00 86 1012.8
20180425141931 57 152 0.0 8.0 0.00 0.11 0.00 89 1012.8
20180425140429 57 75 0.0 3.0 0.00 0.11 0.00 90 1012.5
20180425134929 56 186 0.0 5.0 0.00 0.12 0.00 92 1012.5
20180425133428 56 53 0.0 2.0 0.00 0.12 0.00 93 1012.5
20180425131930 56 52 0.0 4.0 0.00 0.12 0.00 94 1012.5
20180425130425 56 51 0.0 0.0 0.00 0.12 0.00 94 1012.5
20180425124924 56 51 1.0 5.0 0.00 0.17 0.00 93 1012.4
20180425123424 56 51 0.0 3.0 0.00 0.17 0.00 92 1012.1
20180425121921 56 51 0.0 0.0 0.00 0.17 0.00 92 1012.0
20180425120415 56 51 0.0 5.0 0.00 0.17 0.00 91 1011.7
20180425114914 56 48 0.0 3.0 0.00 0.31 0.00 90 1011.6
20180425113411 56 221 0.0 7.0 0.00 0.31 0.00 90 1011.6
20180425111906 56 32 0.0 0.0 0.00 0.31 0.00 90 1011.4
20180425110404 56 32 0.0 3.0 0.00 0.31 0.00 89 1011.2
20180425104902 56 32 0.0 3.0 0.00 0.50 0.00 89 1011.0
20180425103402 55 89 0.0 3.0 0.00 0.50 0.00 89 1010.8
20180425101903 56 88 0.0 4.0 0.00 0.50 0.00 89 1010.7
20180425100401 56 87 0.0 3.0 0.00 0.50 0.00 88 1010.7
20180425094903 56 107 0.0 0.0 0.00 0.75 0.00 87 1010.6
20180425093400 56 346 0.0 6.0 0.00 0.75 0.00 87 1010.6
20180425091859 56 269 0.0 4.0 0.00 0.75 0.00 87 1010.5
20180425090400 56 279 0.0 4.0 0.00 0.75 0.00 87 1010.5
20180425084859 55 332 0.0 7.0 0.00 0.87 0.00 89 1010.4
20180425083356 56 308 0.0 0.0 0.00 0.87 0.00 90 1010.4
20180425081854 56 308 0.0 0.0 0.00 0.87 0.00 89 1010.4
20180425080354 57 308 0.0 0.0 0.00 0.87 0.00 88 1010.3